Waterville, ME

4:18 PM EDT on April 26, 2018 (GMT -0400)
Waterville Lafleur

Weather History for KWVL - November, 2011

Change the Weather History Date:

Wednesday, November 23, 2011

  Actual Average Record
Temperature  
Mean Temperature - -  
Max Temperature - 41 °F 66 °F (1999)
Min Temperature - 24 °F 7 °F (1972)
Moisture  
Dew Point -    
Average Humidity    
Maximum Humidity    
Minimum Humidity    
Precipitation  
Precipitation 0.02 in - - ()
Sea Level Pressure  
Sea Level Pressure 29.94 in    
Wind  
Wind Speed 10 mph (NNE)    
Max Wind Speed 20 mph    
Max Gust Speed 25 mph    
Visibility 4 miles    
Events      
Averages and records for this station are not official NWS values.
T = Trace of Precipitation, MM = Missing Value Source: NWS Daily Summary

Daily Weather History Graph

Daily Weather History Graph

Search for Another Location

Airport or City:

Astronomy

Nov. 23, 2011 Rise Set
Actual Time 6:45 AM EST 4:04 PM EST
Civil Twilight 6:13 AM EST 4:36 PM EST
Nautical Twilight 5:37 AM EST 5:12 PM EST
Astronomical Twilight 5:02 AM EST 5:47 PM EST
Moon 4:43 AM EST (11/23) 2:44 PM EST (11/23)
Length of Visible Light 10h 23m
Length of Day
9h 19m
Waning Crescent, 4% of the Moon is Illuminated
Nov 23
Waning Crescent
Nov 25
New
Dec 2
First Quarter
Dec 10
Full
Dec 17
Last Quarter

Hourly Weather History & Observations

Time (EST) Temp. Dew Point Humidity Pressure Visibility Wind Dir Wind Speed Gust Speed Precip Events Conditions
12:15 AM - - N/A% 30.25 in 10.0 mi NNE 8.1 mph - N/A   Scattered Clouds
12:35 AM - - N/A% 30.23 in 10.0 mi NE 6.9 mph - N/A   Clear
12:55 AM - - N/A% 30.22 in 10.0 mi NE 8.1 mph - N/A   Clear
1:15 AM - - N/A% 30.21 in 10.0 mi NE 4.6 mph - N/A   Scattered Clouds
1:35 AM - - N/A% 30.21 in 10.0 mi NE 4.6 mph - N/A   Overcast
1:55 AM - - N/A% 30.21 in 10.0 mi Calm Calm - N/A   Overcast
2:15 AM - - N/A% 30.22 in 1.8 mi NE 4.6 mph - N/A   Overcast
2:35 AM - - N/A% 30.20 in 1.2 mi NNE 4.6 mph - N/A   Mostly Cloudy
2:55 AM - - N/A% 30.19 in 1.0 mi NNE 4.6 mph - N/A   Clear
3:35 AM - - N/A% 30.13 in 1.5 mi NNE 9.2 mph - N/A   Clear
3:55 AM - - N/A% 30.11 in 2.0 mi NNE 10.4 mph - N/A   Clear
4:15 AM - - N/A% 30.10 in 1.5 mi NNE 9.2 mph - N/A   Clear
4:35 AM - - N/A% 30.09 in 1.2 mi NNE 8.1 mph - N/A   Scattered Clouds
4:55 AM - - N/A% 30.07 in 1.0 mi NNE 8.1 mph - N/A   Overcast
5:15 AM - - N/A% 30.06 in 0.8 mi NNE 6.9 mph - N/A   Overcast
5:35 AM - - N/A% 30.05 in 0.8 mi NNE 8.1 mph - N/A   Overcast
6:15 AM - - N/A% 30.04 in 0.8 mi NNE 8.1 mph - N/A   Overcast
6:35 AM - - N/A% 30.02 in 0.8 mi NNE 9.2 mph - N/A   Overcast
7:15 AM - - N/A% 29.99 in 0.2 mi NNE 11.5 mph - N/A   Overcast
7:35 AM - - N/A% 29.98 in 0.2 mi NNE 10.4 mph - N/A   Overcast
7:55 AM - - N/A% 29.96 in 0.2 mi NNE 12.7 mph - N/A   Overcast
8:35 AM - - N/A% 29.92 in 0.2 mi NNE 11.5 mph - N/A   Overcast
8:55 AM - - N/A% 29.91 in 0.2 mi NNE 9.2 mph - 0.01 in   Overcast
9:15 AM - - N/A% 29.90 in 0.2 mi NNE 10.4 mph - N/A   Overcast
9:35 AM - - N/A% 29.88 in 0.2 mi NNE 13.8 mph 18.4 mph N/A   Overcast
9:55 AM - - N/A% 29.87 in 0.2 mi NNE 13.8 mph 18.4 mph N/A   Overcast
10:15 AM - - N/A% 29.86 in 0.5 mi NNE 15.0 mph 19.6 mph N/A   Overcast
10:35 AM - - N/A% 29.84 in 0.8 mi NNE 16.1 mph - 0.01 in   Overcast
10:55 AM - - N/A% 29.83 in 1.0 mi NNE 13.8 mph 20.7 mph 0.01 in   Overcast
11:15 AM - - N/A% 29.82 in 0.8 mi NNE 13.8 mph 20.7 mph N/A   Overcast
11:35 AM - - N/A% 29.82 in 0.8 mi NNE 15.0 mph - N/A   Overcast
11:55 AM - - N/A% 29.80 in 1.5 mi NNE 13.8 mph 17.3 mph N/A   Overcast
12:15 PM - - N/A% 29.77 in 0.8 mi NNE 16.1 mph 21.9 mph N/A   Overcast
12:35 PM - - N/A% 29.79 in 1.0 mi NNE 15.0 mph 20.7 mph N/A   Overcast
1:15 PM - - N/A% 29.77 in 1.2 mi NNE 13.8 mph 21.9 mph N/A   Overcast
1:35 PM - - N/A% 29.75 in 1.2 mi North 17.3 mph 24.2 mph N/A   Overcast
1:55 PM - - N/A% 29.75 in 1.5 mi NNE 15.0 mph 24.2 mph N/A   Overcast
2:35 PM - - N/A% 29.75 in 1.8 mi NNE 18.4 mph 23.0 mph N/A   Overcast
3:35 PM - - N/A% 29.78 in 2.0 mi North 12.7 mph 24.2 mph N/A   Overcast
3:55 PM - - N/A% 29.79 in 2.5 mi North 13.8 mph 18.4 mph N/A   Overcast
4:15 PM - - N/A% 29.79 in 2.0 mi North 16.1 mph - N/A   Overcast
4:35 PM - - N/A% 29.81 in 4.0 mi North 17.3 mph 23.0 mph N/A   Overcast
4:55 PM - - N/A% 29.81 in 10.0 mi North 17.3 mph 23.0 mph N/A   Overcast
5:15 PM - - N/A% 29.83 in 10.0 mi North 13.8 mph 25.3 mph N/A   Overcast
5:35 PM - - N/A% 29.81 in 10.0 mi North 19.6 mph 25.3 mph N/A   Overcast
5:55 PM - - N/A% 29.82 in 10.0 mi North 18.4 mph 24.2 mph N/A   Overcast
6:15 PM - - N/A% 29.82 in 10.0 mi NNE 18.4 mph 24.2 mph N/A   Overcast
6:35 PM - - N/A% 29.83 in 10.0 mi North 17.3 mph 21.9 mph N/A   Overcast
7:15 PM - - N/A% 29.84 in 10.0 mi North 13.8 mph 21.9 mph N/A   Overcast
7:55 PM - - N/A% 29.86 in 10.0 mi North 15.0 mph 23.0 mph N/A   Mostly Cloudy
8:15 PM - - N/A% 29.87 in 10.0 mi North 15.0 mph 24.2 mph N/A   Mostly Cloudy
8:35 PM - - N/A% 29.88 in 10.0 mi North 13.8 mph 18.4 mph N/A   Mostly Cloudy
8:55 PM - - N/A% 29.89 in 10.0 mi North 9.2 mph - N/A   Mostly Cloudy
9:35 PM - - N/A% 29.91 in 10.0 mi North 10.4 mph - N/A   Mostly Cloudy
9:55 PM - - N/A% 29.91 in 10.0 mi NNW 8.1 mph - N/A   Overcast
10:15 PM - - N/A% 29.91 in 10.0 mi North 8.1 mph - N/A   Overcast
10:35 PM - - N/A% 29.91 in 10.0 mi North 10.4 mph 17.3 mph N/A   Mostly Cloudy
10:55 PM - - N/A% 29.91 in 10.0 mi North 11.5 mph 17.3 mph N/A   Scattered Clouds
11:15 PM - - N/A% 29.91 in 10.0 mi NNW 8.1 mph 16.1 mph N/A   Mostly Cloudy
11:55 PM - - N/A% 29.91 in 10.0 mi NNW 9.2 mph 16.1 mph N/A   Mostly Cloudy